Location: Chevresis
(49.7541°N, 3.5705°E)
Time: 04:12:27
(UTC+00:00)

Daily predictions for brighter satellites

Satellite Brightness Start Highest point End
(mag) Time Altitude Azimuth Time Altitude Azimuth Time Altitude Azimuth
ATLAS 2AS CENTAUR R/B 4.4 00:01:35 10° NW 00:04:13 24° NW 00:04:13 24° NW
SL-16 R/B 3.6 01:09:58 40° N 01:09:58 40° N 01:14:03 10° N
Cosmos 2237 Rocket 4.2 01:10:40 22° NNW 01:10:40 22° NNW 01:13:25 10° NNE
ADEOS II 3.9 01:14:24 10° NNE 01:17:15 26° ENE 01:17:15 26° ENE
SL-16 R/B 3.7 01:48:08 29° NNW 01:48:08 29° NNW 01:51:35 10° NNE
CZ-2D R/B 3.3 01:47:04 10° NNE 01:50:21 38° N 01:50:21 38° N
Resurs 1-4 Rocket 3.3 01:58:40 10° N 02:01:48 36° N 02:01:48 36° N
Cosmos 2366 rocket 4.4 02:23:31 50° NW 02:23:31 50° NW 02:28:26 10° N
Cosmos 1943 3.8 02:23:44 47° NNW 02:23:44 47° NNW 02:28:14 10° NNE
Cosmos 1603 4.2 02:26:52 53° NNW 02:26:52 53° NNW 02:31:34 10° NNE
Cosmos 292 Rocket 4.3 02:37:21 56° NNE 02:37:21 56° NNE 02:41:13 10° NNE
IDEFIX/ARIANE 42P 3.1 02:31:43 10° N 02:35:50 50° NNW 02:35:50 50° NNW
Cosmos 1743 Rocket 4.5 02:32:36 10° N 02:36:19 47° NE 02:36:19 47° NE
SL-08 R/B 4.3 02:39:14 81° WSW 02:39:28 83° W 02:45:38 10° N
ATLAS 5 CENTAUR R/B 3.3 02:40:34 24° N 02:40:34 24° N 02:43:30 10° NNE
Cosmos 2239 Rocket 4.4 02:41:02 65° S 02:42:00 82° E 02:48:13 10° N
Cosmos 2221 4.0 02:44:53 30° N 02:44:53 30° N 02:47:09 10° N
CZ-2C R/B 3.9 02:38:42 10° NNE 02:43:16 33° E 02:45:49 21° SE
Cosmos 2251 Rocket 3.9 02:38:20 10° NNW 02:43:35 63° ENE 02:48:46 10° SE
Cosmos 1000 Rocket 4.3 02:37:34 10° NNW 02:43:49 79° W 02:44:15 75° SW
Cosmos 1821 Rocket 3.8 02:45:36 73° WSW 02:45:56 75° WNW 02:52:14 10° N
Cosmos 1500 Rocket 4.4 02:41:50 10° N 02:45:07 48° N 02:45:07 48° N
MSX 3.8 02:44:17 10° N 02:49:57 65° WNW 02:49:57 65° WNW
SL-16 R/B 4.1 02:55:04 20° NW 02:55:04 20° NW 02:57:16 10° NW
Cosmos 2123 Rocket 4.0 02:46:26 10° N 02:52:42 82° E 02:57:13 20° SSE
FENGYUN 3A 4.0 02:48:03 10° NNE 02:53:23 60° E 02:55:11 39° SSE
ADEOS II 2.8 02:54:02 10° N 02:58:10 38° NW 02:58:10 38° NW
Cosmos 1140 Rocket 3.9 02:55:46 10° NNW 03:00:56 62° ENE 03:06:06 10° SE
Sich 1 3.5 02:58:08 10° N 03:02:24 58° ENE 03:04:07 33° SE
Cosmos 1697 Rocket 3.8 02:57:20 10° NNW 03:02:45 44° NE 03:08:07 10° SE
Cosmos 44 3.4 03:03:53 53° N 03:03:53 53° N 03:07:37 10° NE
Cosmos 1933 4.5 03:05:12 35° NNW 03:05:12 35° NNW 03:07:46 10° N
Cosmos 1782 3.8 03:11:05 37° NNW 03:11:05 37° NNW 03:13:44 10° N
IRS-1D 3.5 03:04:30 10° N 03:09:51 71° WNW 03:10:31 63° WSW
Cosmos 1934 Rocket 4.0 03:08:36 34° S 03:11:39 89° ESE 03:18:02 10° N
CBERS-1 4.0 03:06:32 10° NNE 03:11:41 77° ESE 03:13:28 41° S
Cosmos 1605 Rocket 4.4 03:08:56 12° S 03:14:28 61° E 03:20:28 10° NNE
ATLAS CENTAUR R/B 4.5 03:14:33 10° SE 03:16:45 13° ESE 03:18:58 10° E
CZ-2C R/B 3.1 03:18:51 10° SSE 03:23:56 59° ENE 03:29:10 10° N
Cosmos 1932 4.5 03:25:13 42° WSW 03:27:24 69° NW 03:33:51 10° NE
Cosmos 1812 3.9 03:31:34 30° NW 03:31:34 30° NW 03:34:02 10° N
Cosmos 1340 4.2 03:32:42 23° NNW 03:32:42 23° NNW 03:34:38 10° N
CZ-2D R/B 3.9 03:28:29 10° NNW 03:31:39 16° NW 03:31:39 16° NW
PAYLOAD A 3.9 03:26:56 10° NNE 03:31:43 80° ESE 03:34:35 25° S
SL-16 R/B 4.4 03:30:19 10° NW 03:32:22 12° NNW 03:34:24 10° N
Cosmos 407 Rocket 3.4 03:28:10 10° NNW 03:33:30 83° WSW 03:38:50 10° SSE
Tiangong 0.6 03:38:03 11° SSE 03:38:03 11° SSE 03:38:16 10° SSE
BREEZE-M DEB (TANK) 1.7 03:41:10 66° S 03:41:10 66° S 03:45:31 10° ESE
Cosmos 1980 Rocket 3.3 03:35:54 10° NNW 03:41:16 44° NE 03:46:36 10° SE
Meteor 1-14 Rocket 4.3 03:35:50 10° NNW 03:41:43 64° W 03:47:29 10° S
EO 1 Del DPAF 4.0 03:38:36 10° N 03:40:49 31° NNW 03:40:49 31° NNW
Lacrosse 4 Rocket 4.3 03:39:35 10° N 03:41:51 14° NNE 03:44:07 10° ENE
Cosmos 1656 3.7 03:36:20 10° NW 03:41:55 56° WSW 03:47:27 10° S
ALOS 2.2 03:37:45 10° N 03:42:22 64° WNW 03:44:08 36° SW
Resurs 1-4 Rocket 4.1 03:40:28 10° NNW 03:42:44 13° NW 03:42:52 13° NW
X-37B 2.7 03:43:15 16° SSE 03:43:15 16° SSE 03:44:55 10° ESE
Helios 1B rocket 2.3 03:49:11 10° NNE 03:53:16 77° WNW 03:55:38 24° SSW
USA 307 4.4 03:51:03 16° S 03:53:29 28° SE 03:57:05 10° ENE
Meteor 1-5 Rocket 4.5 03:48:54 10° NNW 03:53:56 40° W 03:57:32 17° SSW
Cosmos 1805 Rocket 4.1 03:49:53 10° NNW 03:53:57 36° W 03:54:17 35° WSW
ARIANE 5 R/B 2.5 03:49:51 10° NNE 03:54:57 81° ESE 03:59:58 10° SSW
Meteor 1-11 Rocket 3.9 03:52:37 10° N 03:58:38 84° ENE 04:04:37 10° SSE
SL-08 R/B 3.2 03:57:44 10° SSE 04:02:23 88° WSW 04:07:08 10° NNW
Cosmos 1633 Rocket 2.9 03:59:07 10° NNW 04:03:30 83° W 04:07:49 10° S
GP-B 4.5 04:01:04 10° SSE 04:05:13 41° E 04:09:24 10° NNE
Cosmos 1484 Rocket 2.8 04:03:42 10° NNE 04:07:42 83° ESE 04:11:41 10° SSW
USA 306 3.8 04:05:17 18° SSW 04:07:56 40° SE 04:11:50 10° ENE
Cosmos 676 Rocket 4.0 04:04:43 10° NNW 04:09:58 84° ENE 04:15:13 10° SSE
Cosmos 1666 Rocket 3.6 04:08:50 10° NNW 04:13:13 55° W 04:17:34 10° S
Cosmos 2098 Rocket 1.9 04:10:23 10° NNW 04:13:16 58° W 04:16:07 10° S
ERS-1 4.5 04:08:54 10° NNE 04:14:06 77° WNW 04:19:18 10° SSW
Cosmos 2360 4.2 04:09:07 10° NW 04:14:46 64° WSW 04:20:23 10° SSE
Cosmos 1624 Rocket 4.1 04:12:17 10° SSW 04:17:34 80° ESE 04:22:56 10° NNE
Meteor 1-4 Rocket 2.4 04:14:15 10° NNW 04:17:52 87° W 04:21:31 10° S
Cosmos 1153 Rocket 4.4 04:12:22 10° SSW 04:18:30 76° W 04:24:45 10° N
CZ-2C R/B 3.8 04:12:56 10° NNE 04:18:44 64° E 04:24:21 10° S
USA 234 3.8 04:15:03 10° ENE 04:21:29 58° SE 04:27:55 10° SW
CZ-2C R/B 3.0 04:16:50 10° N 04:21:32 39° WNW 04:25:10 15° SW
Cosmos 2100 Rocket 4.2 04:15:30 10° S 04:21:36 76° E 04:27:46 10° NNE
Cosmos 1328 Rocket 3.5 04:17:50 10° SSW 04:22:11 79° W 04:26:37 10° N
Meteor 2-13 Rocket 4.5 04:16:59 10° N 04:23:09 88° E 04:29:18 10° S
BREEZE-M DEB (TANK) 3.4 04:20:00 18° W 04:23:33 43° SSW 04:26:05 10° SE
Cosmos 1833 Rocket 2.7 04:20:09 10° SSW 04:25:48 79° WNW 04:31:30 10° NNE
ATLAS 5 CENTAUR R/B 3.9 04:23:07 10° NW 04:25:49 16° N 04:28:47 10° NE
CZ-2C R/B 1.4 04:25:29 10° N 04:27:35 81° W 04:30:48 10° S
Envisat 3.0 04:22:32 10° NNE 04:27:40 89° W 04:32:44 10° SSW
USA 308 3.6 04:24:31 12° SW 04:28:05 47° SE 04:32:05 10° ENE
Cosmos 1515 3.7 04:24:40 10° SSW 04:28:20 55° WNW 04:32:01 10° N
ERBS 1.8 04:28:10 22° WSW 04:29:52 88° NNW 04:32:47 10° NE
Cosmos 1371 Rocket 4.0 04:25:10 10° SSW 04:30:28 78° WNW 04:35:45 10° NNE
IRS-1C 4.4 04:25:23 10° N 04:30:31 48° WNW 04:35:37 10° SW
Cosmos 1536 2.9 04:26:54 10° NNW 04:30:53 56° W 04:34:50 10° S
Aureole 3 4.1 04:28:39 16° SW 04:31:06 28° WNW 04:34:11 10° NNW
PSLV R/B 4.2 04:27:51 10° NNE 04:32:11 60° ESE 04:36:26 10° S
COSMOS 2406 3.5 04:29:15 10° SSW 04:34:53 70° ESE 04:40:33 10° NNE
Cosmos 2082 Rocket 2.9 04:30:41 10° S 04:36:09 56° ESE 04:41:38 10° NE
YAOGAN 6 2.7 04:34:44 10° N 04:38:19 52° WNW 04:41:50 10° SSW
Cosmos 1515 Rocket 3.6 04:35:48 10° S 04:40:13 85° E 04:44:42 10° N
Cosmos 1151 Rocket 3.7 04:36:56 10° SW 04:40:45 32° WNW 04:44:37 10° N
BREEZE M DEB (TANK) 4.4 04:22:03 14° W 04:41:14 89° S 04:46:10 10° E
Cosmos 1470 Rocket 3.6 04:39:58 10° NNW 04:44:11 52° W 04:48:23 10° S
Cosmos 1697 Rocket 3.2 04:41:29 10° NW 04:46:39 38° WSW 04:51:49 10° S
Cosmos 2360 Rocket 4.4 04:45:03 10° NNW 04:49:42 25° NE 04:54:18 10° E
Cosmos 1356 4.4 04:49:29 10° SW 04:52:12 24° WNW 04:54:56 10° NNW
Cosmos 1346 Rocket 3.4 04:48:58 10° SW 04:52:40 36° WNW 04:56:23 10° N
BREEZE M DEB (TANK) 4.0 04:41:58 10° SW 04:54:18 55° SSE 04:57:59 10° E
Cosmos 1850 Rocket 4.2 04:49:01 10° NNW 04:54:22 81° ENE 04:59:43 10° SSE
ATLAS CENTAUR R/B 2.0 04:49:53 10° SSW 04:54:43 75° SE 04:59:35 10° NE
Cosmos 1743 3.6 04:52:44 10° NNW 04:56:00 28° W 04:59:15 10° SSW
SJ-6F 4.5 04:52:06 10° NNE 04:56:18 90° WNW 05:00:27 10° SSW
USA 305 2.9 04:54:07 10° WSW 04:58:15 82° SSE 05:02:24 10° ENE
CZ-2C R/B 2.6 04:55:02 10° N 04:58:46 74° WNW 05:02:32 10° SSW
BREEZE-M DEB (TANK) 1.8 04:56:18 10° W 04:59:08 58° SSW 05:01:28 10° ESE
Tsikada Rocket 4.3 04:52:50 10° N 04:59:13 78° E 05:05:29 10° SSE
Cosmos 2056 Rocket 3.7 04:56:07 10° SW 05:01:05 48° WNW 05:06:04 10° NNE
Cosmos 1441 Rocket 3.7 05:00:18 10° SW 05:03:44 35° WNW 05:07:13 10° N
Meteor 1-27 Rocket 4.0 04:58:27 10° SSW 05:04:03 53° WNW 05:09:49 10° N
CZ-2C R/B 3.7 05:00:36 10° SW 05:04:39 23° W 05:08:47 10° NW
Cosmos 1802 Rocket 4.1 05:00:14 10° SSW 05:06:38 72° WNW 05:12:58 10° N
Cosmos 1939 Rocket 4.2 05:05:07 10° NNE 05:09:06 47° E 05:12:58 10° S
Spot 4 Rocket 4.3 05:06:19 10° N 05:11:14 48° WNW 05:16:08 10° SW
Cosmos 1459 Rocket 4.2 05:05:17 10° SSW 05:11:29 55° WNW 05:17:46 10° N
